Time,TemperatureF,DewpointF,PressureIn,WindDirection,WindDirectionDegrees,WindSpeedMPH,WindSpeedGustMPH,Humidity,HourlyPrecipIn,Conditions,Clouds,dailyrainin,SolarRadiationWatts/m^2,SoftwareType,DateUTC
2013-06-09 00:01:00,51.8,46.5,30.69,North,-999,0.0,0.7,82,0.00,,,0.00,0.00,pywws,2013-06-08 23:01:00,
2013-06-09 00:07:00,51.6,46.6,30.69,SW,225,0.7,2.2,83,0.00,,,0.00,0.00,pywws,2013-06-08 23:07:00,
2013-06-09 00:12:00,51.4,46.5,30.69,South,180,1.6,2.2,83,0.00,,,0.00,0.00,pywws,2013-06-08 23:12:00,
2013-06-09 00:18:00,51.3,46.3,30.69,South,180,1.6,2.2,83,0.00,,,0.00,0.00,pywws,2013-06-08 23:18:00,
2013-06-09 00:24:00,51.1,46.1,30.69,SW,225,1.6,3.1,83,0.00,,,0.00,0.00,pywws,2013-06-08 23:24:00,
2013-06-09 00:29:00,51.1,46.1,30.69,South,180,0.7,1.6,83,0.00,,,0.00,0.00,pywws,2013-06-08 23:29:00,
2013-06-09 00:35:00,50.9,45.9,30.69,SW,225,2.2,3.8,83,0.00,,,0.00,0.00,pywws,2013-06-08 23:35:00,
2013-06-09 00:40:00,50.7,45.4,30.68,SW,225,1.6,2.2,82,0.00,,,0.00,0.00,pywws,2013-06-08 23:40:00,
2013-06-09 00:46:00,50.5,45.3,30.68,South,180,1.6,3.1,82,0.00,,,0.00,0.00,pywws,2013-06-08 23:46:00,
2013-06-09 00:52:00,50.5,44.9,30.68,NW,315,0.7,1.6,81,0.00,,,0.00,0.00,pywws,2013-06-08 23:52:00,
2013-06-09 00:57:00,50.4,44.8,30.68,SW,225,0.7,2.2,81,0.00,,,0.00,0.00,pywws,2013-06-08 23:57:00,
2013-06-09 01:03:00,50.4,44.8,30.68,North,-999,0.0,0.7,81,0.00,,,0.00,0.00,pywws,2013-06-09 00:03:00,
2013-06-09 01:08:00,50.4,44.8,30.68,North,-999,0.0,0.7,81,0.00,,,0.00,0.00,pywws,2013-06-09 00:08:00,
2013-06-09 01:14:00,50.0,44.4,30.68,SW,225,0.7,1.6,81,0.00,,,0.00,0.00,pywws,2013-06-09 00:14:00,
2013-06-09 01:20:00,49.8,44.5,30.67,North,-999,0.0,0.7,82,0.00,,,0.00,0.00,pywws,2013-06-09 00:20:00,
2013-06-09 01:25:00,49.6,44.4,30.67,SW,225,1.6,2.2,82,0.00,,,0.00,0.00,pywws,2013-06-09 00:25:00,
2013-06-09 01:31:00,49.6,44.4,30.67,North,-999,0.0,1.6,82,0.00,,,0.00,0.00,pywws,2013-06-09 00:31:00,
2013-06-09 01:36:00,49.5,44.2,30.67,SW,225,1.6,3.1,82,0.00,,,0.00,0.00,pywws,2013-06-09 00:36:00,
2013-06-09 01:42:00,49.5,44.2,30.67,NW,315,2.2,3.1,82,0.00,,,0.00,0.00,pywws,2013-06-09 00:42:00,
2013-06-09 01:48:00,49.5,44.2,30.67,West,270,1.6,2.2,82,0.00,,,0.00,0.00,pywws,2013-06-09 00:48:00,
2013-06-09 01:53:00,49.5,43.9,30.67,North,-999,0.0,0.7,81,0.00,,,0.00,0.00,pywws,2013-06-09 00:53:00,
2013-06-09 01:59:00,49.3,43.7,30.66,SW,225,0.7,1.6,81,0.00,,,0.00,0.00,pywws,2013-06-09 00:59:00,
2013-06-09 02:04:00,49.1,43.5,30.66,SW,225,0.7,1.6,81,0.00,,,0.00,0.00,pywws,2013-06-09 01:04:00,
2013-06-09 02:10:00,49.1,43.5,30.66,North,-999,0.0,1.6,81,0.00,,,0.00,0.00,pywws,2013-06-09 01:10:00,
2013-06-09 02:15:00,48.9,43.3,30.66,SE,135,1.6,2.2,81,0.00,,,0.00,0.00,pywws,2013-06-09 01:15:00,
2013-06-09 02:21:00,48.7,43.5,30.66,SW,225,0.7,1.6,82,0.00,,,0.00,0.00,pywws,2013-06-09 01:21:00,
2013-06-09 02:26:00,48.6,43.3,30.66,SSW,202,0.7,2.2,82,0.00,,,0.00,0.00,pywws,2013-06-09 01:26:00,
2013-06-09 02:32:00,48.6,43.6,30.66,South,180,1.6,2.2,83,0.00,,,0.00,0.00,pywws,2013-06-09 01:32:00,
2013-06-09 02:37:00,48.6,43.6,30.66,SW,225,1.6,2.2,83,0.00,,,0.00,0.00,pywws,2013-06-09 01:37:00,
2013-06-09 02:43:00,48.7,43.8,30.66,NW,315,1.6,2.2,83,0.00,,,0.00,0.00,pywws,2013-06-09 01:43:00,
2013-06-09 02:49:00,48.9,44.0,30.66,SW,225,2.2,3.1,83,0.00,,,0.00,0.00,pywws,2013-06-09 01:49:00,
2013-06-09 02:55:00,48.9,43.7,30.66,South,180,2.2,4.5,82,0.00,,,0.00,0.00,pywws,2013-06-09 01:55:00,
2013-06-09 03:00:00,48.7,43.5,30.65,South,180,1.6,2.2,82,0.00,,,0.00,0.00,pywws,2013-06-09 02:00:00,
2013-06-09 03:06:00,48.7,43.5,30.65,NW,315,0.7,2.2,82,0.00,,,0.00,0.00,pywws,2013-06-09 02:06:00,
2013-06-09 03:12:00,48.6,43.3,30.65,South,180,2.2,4.5,82,0.00,,,0.00,0.00,pywws,2013-06-09 02:12:00,
2013-06-09 03:17:00,48.6,43.6,30.64,NW,315,0.7,1.6,83,0.00,,,0.00,0.00,pywws,2013-06-09 02:17:00,
2013-06-09 03:23:00,48.6,43.6,30.64,WSW,248,1.6,2.2,83,0.00,,,0.00,0.00,pywws,2013-06-09 02:23:00,
2013-06-09 03:28:00,48.6,43.6,30.64,South,180,2.2,3.8,83,0.00,,,0.00,0.00,pywws,2013-06-09 02:28:00,
2013-06-09 03:34:00,48.4,43.5,30.64,South,180,0.7,1.6,83,0.00,,,0.00,0.00,pywws,2013-06-09 02:34:00,
2013-06-09 03:40:00,48.2,43.3,30.64,South,180,0.7,2.2,83,0.00,,,0.00,0.00,pywws,2013-06-09 02:40:00,
2013-06-09 03:45:00,48.0,43.4,30.63,SW,225,1.6,3.1,84,0.00,,,0.00,0.00,pywws,2013-06-09 02:45:00,
2013-06-09 03:51:00,47.8,43.6,30.63,West,270,0.7,2.2,85,0.00,,,0.00,0.00,pywws,2013-06-09 02:51:00,
2013-06-09 03:56:00,47.7,43.4,30.63,South,180,1.6,2.2,85,0.00,,,0.00,0.00,pywws,2013-06-09 02:56:00,
2013-06-09 04:02:00,47.7,43.4,30.62,SW,225,1.6,2.2,85,0.00,,,0.00,0.00,pywws,2013-06-09 03:02:00,
2013-06-09 04:07:00,47.7,43.4,30.63,South,180,1.6,3.1,85,0.00,,,0.00,0.00,pywws,2013-06-09 03:07:00,
2013-06-09 04:13:00,47.8,43.6,30.63,South,180,1.6,3.1,85,0.00,,,0.00,0.00,pywws,2013-06-09 03:13:00,
2013-06-09 04:19:00,48.0,43.7,30.62,South,180,1.6,2.2,85,0.00,,,0.00,0.00,pywws,2013-06-09 03:19:00,
2013-06-09 04:24:00,47.8,43.6,30.62,South,180,2.2,3.8,85,0.00,,,0.00,0.00,pywws,2013-06-09 03:24:00,
2013-06-09 04:30:00,47.8,43.6,30.62,North,-999,0.0,1.6,85,0.00,,,0.00,0.00,pywws,2013-06-09 03:30:00,
2013-06-09 04:36:00,47.7,43.4,30.62,North,0,1.6,2.2,85,0.00,,,0.00,0.00,pywws,2013-06-09 03:36:00,
2013-06-09 04:41:00,47.5,43.2,30.62,ESE,112,0.7,1.6,85,0.00,,,0.00,0.15,pywws,2013-06-09 03:41:00,
2013-06-09 04:47:00,47.5,43.2,30.62,SE,135,0.7,1.6,85,0.00,,,0.00,0.44,pywws,2013-06-09 03:47:00,
2013-06-09 04:52:00,47.3,43.0,30.62,North,-999,0.0,0.7,85,0.00,,,0.00,0.99,pywws,2013-06-09 03:52:00,
2013-06-09 04:58:00,47.1,42.8,30.62,SE,135,0.7,1.6,85,0.00,,,0.00,2.13,pywws,2013-06-09 03:58:00,
2013-06-09 05:01:00,47.1,42.8,30.62,West,270,0.7,1.6,85,0.00,,,0.00,2.72,pywws,2013-06-09 04:01:00,
2013-06-09 05:02:00,47.1,42.8,30.62,West,270,0.7,1.6,85,0.00,,,0.00,2.92,pywws,2013-06-09 04:02:00,
2013-06-09 05:03:00,47.1,42.8,30.62,North,-999,0.0,0.7,85,0.00,,,0.00,2.92,pywws,2013-06-09 04:03:00,
2013-06-09 05:06:00,47.1,42.8,30.62,NW,315,0.7,1.6,85,0.00,,,0.00,3.81,pywws,2013-06-09 04:06:00,
2013-06-09 05:11:00,47.1,43.2,30.62,SE,135,0.7,1.6,86,0.00,,,0.00,5.44,pywws,2013-06-09 04:11:00,
2013-06-09 05:13:00,47.1,43.2,30.62,North,-999,0.0,0.7,86,0.00,,,0.00,5.73,pywws,2013-06-09 04:13:00,
2013-06-09 05:19:00,47.1,43.2,30.62,SW,225,0.7,2.2,86,0.00,,,0.00,7.59,pywws,2013-06-09 04:19:00,
2013-06-09 05:24:00,47.1,43.2,30.62,North,-999,0.0,0.7,86,0.00,,,0.00,9.35,pywws,2013-06-09 04:24:00,
2013-06-09 05:29:00,47.3,43.3,30.62,South,180,0.7,1.6,86,0.00,,,0.00,10.90,pywws,2013-06-09 04:29:00,
2013-06-09 05:35:00,47.3,43.3,30.62,North,-999,0.0,0.0,86,0.00,,,0.00,13.24,pywws,2013-06-09 04:35:00,
2013-06-09 05:40:00,47.5,43.5,30.61,SW,225,1.6,2.2,86,0.00,,,0.00,16.14,pywws,2013-06-09 04:40:00,
2013-06-09 05:46:00,47.7,43.7,30.61,South,180,1.6,2.2,86,0.00,,,0.00,18.27,pywws,2013-06-09 04:46:00,
2013-06-09 05:52:00,47.7,43.7,30.61,SW,225,0.7,1.6,86,0.00,,,0.00,22.12,pywws,2013-06-09 04:52:00,
2013-06-09 05:57:00,47.8,43.9,30.61,SW,225,1.6,2.2,86,0.00,,,0.00,26.65,pywws,2013-06-09 04:57:00,
2013-06-09 06:03:00,48.4,44.1,30.61,North,-999,0.0,0.7,85,0.00,,,0.00,26.17,pywws,2013-06-09 05:03:00,
2013-06-09 06:08:00,48.6,44.3,30.61,North,-999,0.0,0.7,85,0.00,,,0.00,46.23,pywws,2013-06-09 05:08:00,
2013-06-09 06:14:00,49.1,44.8,30.61,SW,225,0.7,2.2,85,0.00,,,0.00,41.58,pywws,2013-06-09 05:14:00,
2013-06-09 06:20:00,49.6,45.3,30.61,West,270,1.6,2.2,85,0.00,,,0.00,72.76,pywws,2013-06-09 05:20:00,
2013-06-09 06:25:00,50.5,45.9,30.61,SW,225,1.6,2.2,84,0.00,,,0.00,102.20,pywws,2013-06-09 05:25:00,
2013-06-09 06:31:00,51.8,46.8,30.61,North,-999,0.0,0.7,83,0.00,,,0.00,101.35,pywws,2013-06-09 05:31:00,
2013-06-09 06:36:00,54.7,49.0,30.62,North,-999,0.0,0.7,81,0.00,,,0.00,64.27,pywws,2013-06-09 05:36:00,
2013-06-09 06:42:00,54.7,48.0,30.61,SW,225,0.7,1.6,78,0.00,,,0.00,39.61,pywws,2013-06-09 05:42:00,
2013-06-09 06:47:00,53.8,46.0,30.61,North,-999,0.0,0.0,75,0.00,,,0.00,39.61,pywws,2013-06-09 05:47:00,
2013-06-09 06:53:00,53.6,45.9,30.61,North,-999,0.0,0.7,75,0.00,,,0.00,47.73,pywws,2013-06-09 05:53:00,
2013-06-09 06:59:00,54.1,46.4,30.61,North,-999,0.0,1.6,75,0.00,,,0.00,106.59,pywws,2013-06-09 05:59:00,
2013-06-09 07:04:00,56.7,49.2,30.61,NW,315,0.7,2.2,76,0.00,,,0.00,121.53,pywws,2013-06-09 06:04:00,
2013-06-09 07:10:00,59.4,51.1,30.61,SSW,202,2.2,3.8,74,0.00,,,0.00,126.73,pywws,2013-06-09 06:10:00,
2013-06-09 07:15:00,60.6,50.4,30.61,South,180,0.7,2.2,69,0.00,,,0.00,134.26,pywws,2013-06-09 06:15:00,
2013-06-09 07:20:00,61.7,49.8,30.61,SE,135,0.7,2.2,65,0.00,,,0.00,142.17,pywws,2013-06-09 06:20:00,
2013-06-09 07:26:00,63.0,50.6,30.61,SW,225,1.6,3.1,64,0.00,,,0.00,152.61,pywws,2013-06-09 06:26:00,
2013-06-09 07:31:00,63.7,50.0,30.61,South,180,1.6,3.1,61,0.00,,,0.00,160.63,pywws,2013-06-09 06:31:00,
2013-06-09 07:36:00,64.4,50.7,30.61,North,-999,0.0,0.7,61,0.00,,,0.00,174.46,pywws,2013-06-09 06:36:00,
2013-06-09 07:42:00,66.6,51.8,30.61,West,270,1.6,3.1,59,0.00,,,0.00,174.46,pywws,2013-06-09 06:42:00,
2013-06-09 07:47:00,66.6,50.4,30.61,NW,315,0.7,2.2,56,0.00,,,0.00,200.44,pywws,2013-06-09 06:47:00,
2013-06-09 07:53:00,66.7,51.0,30.61,North,-999,0.0,0.7,57,0.00,,,0.00,216.50,pywws,2013-06-09 06:53:00,
2013-06-09 07:59:00,68.7,52.9,30.61,North,-999,0.0,0.0,57,0.00,,,0.00,231.01,pywws,2013-06-09 06:59:00,
2013-06-09 08:04:00,68.7,51.9,30.62,North,-999,0.0,1.6,55,0.00,,,0.00,234.32,pywws,2013-06-09 07:04:00,
2013-06-09 08:10:00,67.5,51.2,30.61,North,-999,0.0,0.7,56,0.00,,,0.00,108.72,pywws,2013-06-09 07:10:00,
2013-06-09 08:15:00,65.7,50.5,30.61,North,0,0.7,1.6,58,0.00,,,0.00,78.79,pywws,2013-06-09 07:15:00,
2013-06-09 08:20:00,64.0,49.9,30.62,SW,225,1.6,2.2,60,0.00,,,0.00,83.28,pywws,2013-06-09 07:20:00,
2013-06-09 08:26:00,63.3,50.1,30.62,West,270,1.6,3.1,62,0.00,,,0.00,77.01,pywws,2013-06-09 07:26:00,
2013-06-09 08:31:00,63.0,49.7,30.62,North,-999,0.0,0.7,62,0.00,,,0.00,74.10,pywws,2013-06-09 07:31:00,
2013-06-09 08:37:00,63.0,50.2,30.61,South,180,2.2,4.5,63,0.00,,,0.00,81.37,pywws,2013-06-09 07:37:00,
2013-06-09 08:42:00,63.1,50.3,30.61,SW,225,0.7,2.2,63,0.00,,,0.00,71.23,pywws,2013-06-09 07:42:00,
2013-06-09 08:47:00,63.3,50.5,30.62,NW,315,0.7,2.2,63,0.00,,,0.00,63.08,pywws,2013-06-09 07:47:00,
2013-06-09 08:53:00,63.1,49.9,30.62,SW,225,1.6,3.8,62,0.00,,,0.00,64.27,pywws,2013-06-09 07:53:00,
2013-06-09 08:59:00,63.3,50.1,30.62,South,180,0.7,1.6,62,0.00,,,0.00,68.14,pywws,2013-06-09 07:59:00,
2013-06-09 09:04:00,63.5,49.8,30.61,SW,225,2.2,4.5,61,0.00,,,0.00,68.14,pywws,2013-06-09 08:04:00,
2013-06-09 09:10:00,63.5,49.4,30.62,South,180,0.7,1.6,60,0.00,,,0.00,67.53,pywws,2013-06-09 08:10:00,
2013-06-09 09:15:00,63.7,50.0,30.62,North,-999,0.0,1.6,61,0.00,,,0.00,67.87,pywws,2013-06-09 08:15:00,
2013-06-09 09:20:00,63.9,49.2,30.62,South,180,1.6,3.1,59,0.00,,,0.00,67.87,pywws,2013-06-09 08:20:00,
2013-06-09 09:26:00,63.9,48.3,30.62,North,0,0.7,2.2,57,0.00,,,0.00,68.95,pywws,2013-06-09 08:26:00,
2013-06-09 09:31:00,64.0,47.5,30.62,South,180,1.6,2.2,55,0.00,,,0.00,70.05,pywws,2013-06-09 08:31:00,
2013-06-09 09:36:00,64.2,47.2,30.62,North,-999,0.0,3.1,54,0.00,,,0.00,68.61,pywws,2013-06-09 08:36:00,
2013-06-09 09:42:00,64.4,47.4,30.62,SW,225,2.2,3.8,54,0.00,,,0.00,68.95,pywws,2013-06-09 08:42:00,
2013-06-09 09:47:00,64.6,46.0,30.62,NW,315,0.7,1.6,51,0.00,,,0.00,70.40,pywws,2013-06-09 08:47:00,
2013-06-09 09:53:00,64.9,47.4,30.62,SW,225,1.6,3.1,53,0.00,,,0.00,69.71,pywws,2013-06-09 08:53:00,
2013-06-09 09:59:00,64.9,47.4,30.62,East,90,2.2,5.4,53,0.00,,,0.00,71.23,pywws,2013-06-09 08:59:00,
2013-06-09 10:04:00,65.1,47.6,30.62,NW,315,0.7,3.1,53,0.00,,,0.00,72.76,pywws,2013-06-09 09:04:00,
2013-06-09 10:10:00,65.3,49.2,30.62,WSW,248,0.7,3.1,56,0.00,,,0.00,77.40,pywws,2013-06-09 09:10:00,
2013-06-09 10:15:00,65.8,49.7,30.62,SW,225,0.7,2.2,56,0.00,,,0.00,79.57,pywws,2013-06-09 09:15:00,
2013-06-09 10:21:00,66.0,49.4,30.62,North,-999,0.0,1.6,55,0.00,,,0.00,80.36,pywws,2013-06-09 09:21:00,
2013-06-09 10:27:00,66.2,49.1,30.62,West,270,0.7,1.6,54,0.00,,,0.00,82.18,pywws,2013-06-09 09:27:00,
2013-06-09 10:32:00,66.4,48.2,30.63,NW,315,1.6,2.2,52,0.00,,,0.00,79.57,pywws,2013-06-09 09:32:00,
2013-06-09 10:37:00,66.6,49.4,30.63,NE,45,0.7,2.2,54,0.00,,,0.00,78.79,pywws,2013-06-09 09:37:00,
2013-06-09 10:43:00,66.9,50.2,30.63,East,90,2.2,4.5,55,0.00,,,0.00,75.28,pywws,2013-06-09 09:43:00,
2013-06-09 10:48:00,66.9,50.7,30.63,North,0,0.7,1.6,56,0.00,,,0.00,71.23,pywws,2013-06-09 09:48:00,
2013-06-09 10:54:00,67.1,50.4,30.62,SW,225,2.2,3.8,55,0.00,,,0.00,70.88,pywws,2013-06-09 09:54:00,
2013-06-09 11:00:00,67.3,51.5,30.63,NW,315,0.7,1.6,57,0.00,,,0.00,70.40,pywws,2013-06-09 10:00:00,
2013-06-09 11:05:00,67.8,52.0,30.63,South,180,0.7,3.8,57,0.00,,,0.00,126.10,pywws,2013-06-09 10:05:00,
2013-06-09 11:10:00,68.4,51.6,30.63,North,0,0.7,2.2,55,0.00,,,0.00,226.43,pywws,2013-06-09 10:10:00,
2013-06-09 11:15:00,69.4,50.0,30.63,East,90,2.2,3.8,50,0.00,,,0.00,591.61,pywws,2013-06-09 10:15:00,
2013-06-09 11:21:00,70.3,50.3,30.63,NW,315,1.6,3.1,49,0.00,,,0.00,609.41,pywws,2013-06-09 10:21:00,
2013-06-09 11:27:00,71.1,51.5,30.63,West,270,1.6,2.2,50,0.00,,,0.00,629.50,pywws,2013-06-09 10:27:00,
2013-06-09 11:32:00,71.8,50.5,30.63,North,0,1.6,3.1,47,0.00,,,0.00,642.72,pywws,2013-06-09 10:32:00,
2013-06-09 11:37:00,72.0,50.6,30.63,SE,135,0.7,2.2,47,0.00,,,0.00,649.29,pywws,2013-06-09 10:37:00,
2013-06-09 11:43:00,72.9,50.9,30.63,NW,315,1.6,2.2,46,0.00,,,0.00,659.00,pywws,2013-06-09 10:43:00,
2013-06-09 11:48:00,73.2,51.2,30.63,NE,45,0.7,1.6,46,0.00,,,0.00,666.25,pywws,2013-06-09 10:48:00,
2013-06-09 11:53:00,74.3,52.7,30.63,East,90,0.7,1.6,47,0.00,,,0.00,668.23,pywws,2013-06-09 10:53:00,
2013-06-09 11:59:00,74.5,52.3,30.62,NE,45,2.2,4.5,46,0.00,,,0.00,684.78,pywws,2013-06-09 10:59:00,
2013-06-09 12:04:00,75.0,52.8,30.62,NE,45,0.7,2.2,46,0.00,,,0.00,689.50,pywws,2013-06-09 11:04:00,
2013-06-09 12:10:00,74.1,52.0,30.63,South,180,0.7,1.6,46,0.00,,,0.00,689.50,pywws,2013-06-09 11:10:00,
2013-06-09 12:15:00,75.0,52.8,30.63,SW,225,2.2,3.8,46,0.00,,,0.00,694.33,pywws,2013-06-09 11:15:00,
2013-06-09 12:21:00,75.4,52.5,30.63,South,180,3.8,5.4,45,0.00,,,0.00,697.08,pywws,2013-06-09 11:21:00,
2013-06-09 12:27:00,74.8,53.2,30.63,North,0,0.7,1.6,47,0.00,,,0.00,695.71,pywws,2013-06-09 11:27:00,
2013-06-09 12:32:00,75.9,53.6,30.63,NW,315,0.7,1.6,46,0.00,,,0.00,697.08,pywws,2013-06-09 11:32:00,
2013-06-09 12:37:00,76.6,53.7,30.63,South,180,1.6,3.1,45,0.00,,,0.00,706.00,pywws,2013-06-09 11:37:00,
2013-06-09 12:43:00,76.5,53.5,30.63,West,270,0.7,3.1,45,0.00,,,0.00,700.53,pywws,2013-06-09 11:43:00,
2013-06-09 12:48:00,75.4,52.5,30.63,NW,315,0.7,3.1,45,0.00,,,0.00,703.98,pywws,2013-06-09 11:48:00,
2013-06-09 12:53:00,75.2,53.0,30.62,NW,315,0.7,3.1,46,0.00,,,0.00,700.53,pywws,2013-06-09 11:53:00,
2013-06-09 12:59:00,75.7,53.5,30.62,South,180,3.1,5.4,46,0.00,,,0.00,699.15,pywws,2013-06-09 11:59:00,
2013-06-09 13:04:00,74.8,53.2,30.62,NNE,22,1.6,5.4,47,0.00,,,0.00,694.33,pywws,2013-06-09 12:04:00,
2013-06-09 13:10:00,74.1,52.6,30.62,South,180,0.7,2.2,47,0.00,,,0.00,689.50,pywws,2013-06-09 12:10:00,
2013-06-09 13:15:00,74.1,53.2,30.62,SE,135,0.7,2.2,48,0.00,,,0.00,689.50,pywws,2013-06-09 12:15:00,
2013-06-09 13:20:00,75.2,53.6,30.62,East,90,3.1,5.4,47,0.00,,,0.00,688.15,pywws,2013-06-09 12:20:00,
2013-06-09 13:26:00,74.8,52.7,30.62,NW,315,1.6,2.2,46,0.00,,,0.00,681.41,pywws,2013-06-09 12:26:00,
2013-06-09 13:31:00,73.9,51.8,30.62,West,270,1.6,4.5,46,0.00,,,0.00,672.84,pywws,2013-06-09 12:31:00,
2013-06-09 13:36:00,74.8,52.7,30.62,SE,135,0.7,1.6,46,0.00,,,0.00,676.70,pywws,2013-06-09 12:36:00,
2013-06-09 13:42:00,75.6,52.7,30.62,South,180,3.1,5.4,45,0.00,,,0.00,676.70,pywws,2013-06-09 12:42:00,
2013-06-09 13:47:00,75.2,51.8,30.61,NW,315,1.6,3.1,44,0.00,,,0.00,668.23,pywws,2013-06-09 12:47:00,
2013-06-09 13:53:00,75.4,50.7,30.61,West,270,1.6,3.1,42,0.00,,,0.00,664.93,pywws,2013-06-09 12:53:00,
2013-06-09 13:59:00,74.8,50.8,30.61,West,270,0.7,1.6,43,0.00,,,0.00,657.01,pywws,2013-06-09 12:59:00,
2013-06-09 14:04:00,75.4,51.9,30.61,SE,135,1.6,2.2,44,0.00,,,0.00,650.58,pywws,2013-06-09 13:04:00,
2013-06-09 14:10:00,75.4,51.3,30.61,NE,45,2.2,4.5,43,0.00,,,0.00,646.07,pywws,2013-06-09 13:10:00,
2013-06-09 14:15:00,75.4,50.0,30.61,NW,315,0.7,2.2,41,0.00,,,0.00,639.57,pywws,2013-06-09 13:15:00,
2013-06-09 14:20:00,75.9,47.8,30.61,SW,225,1.6,3.8,37,0.00,,,0.00,633.91,pywws,2013-06-09 13:20:00,
2013-06-09 14:26:00,76.3,48.8,30.61,NE,45,0.7,1.6,38,0.00,,,0.00,629.50,pywws,2013-06-09 13:26:00,
2013-06-09 14:31:00,75.9,49.2,30.61,West,270,2.2,4.5,39,0.00,,,0.00,621.76,pywws,2013-06-09 13:31:00,
2013-06-09 14:36:00,75.6,48.2,30.61,WSW,248,0.7,1.6,38,0.00,,,0.00,613.62,pywws,2013-06-09 13:36:00,
2013-06-09 14:41:00,74.8,48.2,30.61,SW,225,1.6,2.2,39,0.00,,,0.00,603.40,pywws,2013-06-09 13:41:00,
2013-06-09 14:47:00,74.7,50.0,30.61,NW,315,1.6,2.2,42,0.00,,,0.00,595.73,pywws,2013-06-09 13:47:00,
2013-06-09 14:52:00,75.0,50.4,30.61,SSE,158,3.1,5.4,42,0.00,,,0.00,587.50,pywws,2013-06-09 13:52:00,
2013-06-09 14:57:00,74.8,48.2,30.60,South,180,3.8,6.9,39,0.00,,,0.00,582.04,pywws,2013-06-09 13:57:00,
2013-06-09 15:03:00,73.9,48.7,30.60,East,90,0.7,1.6,41,0.00,,,0.00,568.85,pywws,2013-06-09 14:03:00,
2013-06-09 15:08:00,75.2,47.8,30.60,North,-999,0.0,0.7,38,0.00,,,0.00,563.24,pywws,2013-06-09 14:08:00,
2013-06-09 15:13:00,76.3,49.5,30.60,North,0,0.7,2.2,39,0.00,,,0.00,555.67,pywws,2013-06-09 14:13:00,
2013-06-09 15:19:00,76.8,48.6,30.60,NE,45,1.6,3.1,37,0.00,,,0.00,544.07,pywws,2013-06-09 14:19:00,
2013-06-09 15:24:00,77.0,47.2,30.60,South,180,0.7,1.6,35,0.00,,,0.00,535.50,pywws,2013-06-09 14:24:00,
2013-06-09 15:30:00,77.0,44.9,30.60,North,-999,0.0,0.7,32,0.00,,,0.00,523.50,pywws,2013-06-09 14:30:00,
2013-06-09 15:35:00,76.5,43.6,30.60,NE,45,1.6,4.5,31,0.00,,,0.00,513.55,pywws,2013-06-09 14:35:00,
2013-06-09 15:40:00,75.9,43.1,30.60,North,0,0.7,2.2,31,0.00,,,0.00,502.00,pywws,2013-06-09 14:40:00,
2013-06-09 15:46:00,76.3,43.4,30.60,SW,225,0.7,2.2,31,0.00,,,0.00,492.85,pywws,2013-06-09 14:46:00,
2013-06-09 15:51:00,76.6,43.7,30.60,North,-999,0.0,1.6,31,0.00,,,0.00,484.03,pywws,2013-06-09 14:51:00,
2013-06-09 15:56:00,77.0,44.0,30.59,North,0,0.7,1.6,31,0.00,,,0.00,475.05,pywws,2013-06-09 14:56:00,
2013-06-09 16:02:00,77.2,43.3,30.59,NW,315,1.6,3.1,30,0.00,,,0.00,465.47,pywws,2013-06-09 15:02:00,
2013-06-09 16:07:00,76.8,43.0,30.59,NW,315,2.2,3.8,30,0.00,,,0.00,453.62,pywws,2013-06-09 15:07:00,
2013-06-09 16:13:00,77.2,43.3,30.59,NE,45,1.6,3.1,30,0.00,,,0.00,445.60,pywws,2013-06-09 15:13:00,
2013-06-09 16:19:00,77.4,43.5,30.59,NNW,338,0.7,1.6,30,0.00,,,0.00,434.23,pywws,2013-06-09 15:19:00,
2013-06-09 16:24:00,78.1,44.1,30.59,SW,225,1.6,2.2,30,0.00,,,0.00,424.53,pywws,2013-06-09 15:24:00,
2013-06-09 16:30:00,77.7,42.9,30.59,NW,315,0.7,2.2,29,0.00,,,0.00,413.56,pywws,2013-06-09 15:30:00,
2013-06-09 16:35:00,77.9,43.1,30.58,WNW,292,0.7,1.6,29,0.00,,,0.00,403.50,pywws,2013-06-09 15:35:00,
2013-06-09 16:40:00,77.2,42.4,30.59,South,180,0.7,2.2,29,0.00,,,0.00,391.49,pywws,2013-06-09 15:40:00,
2013-06-09 16:46:00,77.5,42.8,30.58,North,0,1.6,2.2,29,0.00,,,0.00,383.32,pywws,2013-06-09 15:46:00,
2013-06-09 16:51:00,77.4,41.7,30.58,North,0,1.6,2.2,28,0.00,,,0.00,370.65,pywws,2013-06-09 15:51:00,
2013-06-09 16:57:00,76.8,43.9,30.58,East,90,0.7,3.1,31,0.00,,,0.00,360.27,pywws,2013-06-09 15:57:00,
2013-06-09 17:03:00,76.5,43.6,30.58,North,0,0.7,1.6,31,0.00,,,0.00,349.50,pywws,2013-06-09 16:03:00,
2013-06-09 17:08:00,77.0,43.2,30.58,NE,45,2.2,3.8,30,0.00,,,0.00,340.16,pywws,2013-06-09 16:08:00,
2013-06-09 17:13:00,75.7,42.9,30.58,North,-999,0.0,0.7,31,0.00,,,0.00,327.86,pywws,2013-06-09 16:13:00,
2013-06-09 17:19:00,75.4,42.6,30.58,SW,225,1.6,3.1,31,0.00,,,0.00,314.67,pywws,2013-06-09 16:19:00,
2013-06-09 17:24:00,74.8,45.3,30.58,NW,315,1.6,2.2,35,0.00,,,0.00,303.31,pywws,2013-06-09 16:24:00,
2013-06-09 17:30:00,74.3,43.3,30.57,SE,135,0.7,2.2,33,0.00,,,0.00,292.25,pywws,2013-06-09 16:30:00,
2013-06-09 17:35:00,73.8,45.1,30.58,NW,315,0.7,1.6,36,0.00,,,0.00,279.59,pywws,2013-06-09 16:35:00,
2013-06-09 17:41:00,74.7,45.9,30.57,SW,225,0.7,1.6,36,0.00,,,0.00,272.11,pywws,2013-06-09 16:41:00,
2013-06-09 17:47:00,75.6,46.0,30.57,NNW,338,1.6,3.8,35,0.00,,,0.00,259.17,pywws,2013-06-09 16:47:00,
2013-06-09 17:52:00,75.6,46.0,30.57,NW,315,0.7,1.6,35,0.00,,,0.00,249.94,pywws,2013-06-09 16:52:00,
2013-06-09 17:57:00,75.2,45.7,30.57,North,-999,0.0,1.6,35,0.00,,,0.00,238.76,pywws,2013-06-09 16:57:00,
2013-06-09 18:03:00,75.4,45.8,30.57,North,-999,0.0,2.2,35,0.00,,,0.00,230.10,pywws,2013-06-09 17:03:00,
2013-06-09 18:08:00,75.4,46.6,30.57,West,270,0.7,2.2,36,0.00,,,0.00,218.15,pywws,2013-06-09 17:08:00,
2013-06-09 18:13:00,75.2,45.7,30.56,West,270,3.8,6.0,35,0.00,,,0.00,209.23,pywws,2013-06-09 17:13:00,
2013-06-09 18:19:00,73.0,44.5,30.56,SE,135,0.7,2.2,36,0.00,,,0.00,199.45,pywws,2013-06-09 17:19:00,
2013-06-09 18:24:00,72.7,45.6,30.56,North,-999,0.0,1.6,38,0.00,,,0.00,189.65,pywws,2013-06-09 17:24:00,
2013-06-09 18:30:00,73.6,47.1,30.56,North,-999,0.0,0.7,39,0.00,,,0.00,181.81,pywws,2013-06-09 17:30:00,
2013-06-09 18:35:00,74.5,46.5,30.56,SW,225,0.7,1.6,37,0.00,,,0.00,169.30,pywws,2013-06-09 17:35:00,
2013-06-09 18:41:00,74.1,46.2,30.56,NW,315,0.7,1.6,37,0.00,,,0.00,163.16,pywws,2013-06-09 17:41:00,
2013-06-09 18:47:00,73.2,45.4,30.56,South,180,2.2,3.1,37,0.00,,,0.00,151.55,pywws,2013-06-09 17:47:00,
2013-06-09 18:52:00,72.9,46.4,30.56,NW,315,0.7,1.6,39,0.00,,,0.00,139.58,pywws,2013-06-09 17:52:00,
2013-06-09 18:57:00,73.4,46.9,30.56,SW,225,1.6,3.1,39,0.00,,,0.00,129.61,pywws,2013-06-09 17:57:00,
2013-06-09 19:03:00,71.2,45.7,30.56,West,270,1.6,3.1,40,0.00,,,0.00,121.77,pywws,2013-06-09 18:03:00,
2013-06-09 19:08:00,70.5,46.3,30.56,WSW,248,1.6,3.1,42,0.00,,,0.00,107.97,pywws,2013-06-09 18:08:00,
2013-06-09 19:13:00,69.6,46.7,30.56,North,-999,0.0,1.6,44,0.00,,,0.00,98.81,pywws,2013-06-09 18:13:00,
2013-06-09 19:19:00,70.3,46.8,30.55,North,-999,0.0,0.7,43,0.00,,,0.00,88.07,pywws,2013-06-09 18:19:00,
2013-06-09 19:24:00,71.4,47.1,30.56,South,180,3.1,4.5,42,0.00,,,0.00,69.23,pywws,2013-06-09 18:24:00,
2013-06-09 19:30:00,69.3,46.4,30.56,NW,315,0.7,2.2,44,0.00,,,0.00,70.88,pywws,2013-06-09 18:30:00,
2013-06-09 19:35:00,70.0,47.1,30.55,North,-999,0.0,0.7,44,0.00,,,0.00,62.79,pywws,2013-06-09 18:35:00,
2013-06-09 19:40:00,70.5,46.9,30.56,North,-999,0.0,0.7,43,0.00,,,0.00,60.10,pywws,2013-06-09 18:40:00,
2013-06-09 19:46:00,71.1,47.4,30.55,North,0,0.7,1.6,43,0.00,,,0.00,59.40,pywws,2013-06-09 18:46:00,
2013-06-09 19:51:00,70.9,47.9,30.55,North,-999,0.0,0.7,44,0.00,,,0.00,59.69,pywws,2013-06-09 18:51:00,
2013-06-09 19:56:00,71.8,47.4,30.56,North,-999,0.0,0.7,42,0.00,,,0.00,59.40,pywws,2013-06-09 18:56:00,
2013-06-09 20:02:00,72.3,47.9,30.55,North,0,0.7,1.6,42,0.00,,,0.00,59.40,pywws,2013-06-09 19:02:00,
2013-06-09 20:07:00,72.0,47.6,30.55,North,-999,0.0,0.7,42,0.00,,,0.00,57.51,pywws,2013-06-09 19:07:00,
2013-06-09 20:13:00,72.0,47.6,30.55,North,-999,0.0,0.7,42,0.00,,,0.00,57.51,pywws,2013-06-09 19:13:00,
2013-06-09 20:19:00,71.1,46.8,30.55,North,-999,0.0,0.0,42,0.00,,,0.00,57.51,pywws,2013-06-09 19:19:00,
2013-06-09 20:24:00,70.7,47.7,30.55,North,-999,0.0,0.7,44,0.00,,,0.00,56.72,pywws,2013-06-09 19:24:00,
2013-06-09 20:30:00,70.3,47.4,30.55,West,270,1.6,3.1,44,0.00,,,0.00,55.18,pywws,2013-06-09 19:30:00,
2013-06-09 20:35:00,68.9,46.7,30.55,NW,315,0.7,1.6,45,0.00,,,0.00,53.29,pywws,2013-06-09 19:35:00,
2013-06-09 20:40:00,68.0,46.4,30.55,North,-999,0.0,0.7,46,0.00,,,0.00,51.87,pywws,2013-06-09 19:40:00,
2013-06-09 20:46:00,66.9,46.0,30.55,SW,225,1.6,3.8,47,0.00,,,0.00,45.05,pywws,2013-06-09 19:46:00,
2013-06-09 20:51:00,64.9,46.4,30.55,West,270,2.2,3.8,51,0.00,,,0.00,41.95,pywws,2013-06-09 19:51:00,
2013-06-09 20:56:00,63.0,45.6,30.55,North,-999,0.0,0.7,53,0.00,,,0.00,29.98,pywws,2013-06-09 19:56:00,
2013-06-09 21:02:00,61.9,46.0,30.55,West,270,0.7,1.6,56,0.00,,,0.00,32.72,pywws,2013-06-09 20:02:00,
2013-06-09 21:07:00,61.0,46.1,30.55,North,-999,0.0,0.7,58,0.00,,,0.00,14.29,pywws,2013-06-09 20:07:00,
2013-06-09 21:13:00,60.1,46.6,30.55,North,-999,0.0,1.6,61,0.00,,,0.00,12.56,pywws,2013-06-09 20:13:00,
2013-06-09 21:19:00,59.4,46.8,30.55,North,-999,0.0,0.0,63,0.00,,,0.00,11.05,pywws,2013-06-09 20:19:00,
2013-06-09 21:24:00,58.8,46.7,30.55,North,-999,0.0,0.0,64,0.00,,,0.00,8.69,pywws,2013-06-09 20:24:00,
2013-06-09 21:30:00,58.1,46.4,30.55,North,-999,0.0,0.0,65,0.00,,,0.00,7.24,pywws,2013-06-09 20:30:00,
2013-06-09 21:35:00,57.6,46.3,30.55,North,-999,0.0,0.0,66,0.00,,,0.00,6.08,pywws,2013-06-09 20:35:00,
2013-06-09 21:40:00,57.2,45.9,30.55,North,-999,0.0,0.0,66,0.00,,,0.00,4.35,pywws,2013-06-09 20:40:00,
2013-06-09 21:46:00,56.8,46.4,30.55,West,270,0.7,1.6,68,0.00,,,0.00,3.16,pywws,2013-06-09 20:46:00,
2013-06-09 21:51:00,56.8,46.8,30.55,SW,225,0.7,2.2,69,0.00,,,0.00,2.13,pywws,2013-06-09 20:51:00,
2013-06-09 21:56:00,56.8,46.8,30.55,North,-999,0.0,0.0,69,0.00,,,0.00,1.43,pywws,2013-06-09 20:56:00,
2013-06-09 22:01:00,56.7,46.6,30.55,North,-999,0.0,0.0,69,0.00,,,0.00,1.04,pywws,2013-06-09 21:01:00,
2013-06-09 22:06:00,56.3,46.3,30.55,North,-999,0.0,0.0,69,0.00,,,0.00,0.25,pywws,2013-06-09 21:06:00,
2013-06-09 22:12:00,55.9,46.3,30.55,North,-999,0.0,0.0,70,0.00,,,0.00,0.00,pywws,2013-06-09 21:12:00,
2013-06-09 22:17:00,55.6,46.0,30.55,North,-999,0.0,0.0,70,0.00,,,0.00,0.00,pywws,2013-06-09 21:17:00,
2013-06-09 22:23:00,55.0,45.8,30.55,North,-999,0.0,0.0,71,0.00,,,0.00,0.00,pywws,2013-06-09 21:23:00,
2013-06-09 22:28:00,54.9,45.6,30.54,North,-999,0.0,0.7,71,0.00,,,0.00,0.00,pywws,2013-06-09 21:28:00,
2013-06-09 22:34:00,54.9,46.0,30.55,North,-999,0.0,0.7,72,0.00,,,0.00,0.00,pywws,2013-06-09 21:34:00,
2013-06-09 22:40:00,54.9,46.0,30.55,North,-999,0.0,0.7,72,0.00,,,0.00,0.00,pywws,2013-06-09 21:40:00,
2013-06-09 22:45:00,55.0,46.2,30.55,North,-999,0.0,0.0,72,0.00,,,0.00,0.00,pywws,2013-06-09 21:45:00,
2013-06-09 22:51:00,54.7,45.8,30.55,NW,315,0.7,1.6,72,0.00,,,0.00,0.00,pywws,2013-06-09 21:51:00,
2013-06-09 22:56:00,54.3,45.1,30.54,North,-999,0.0,0.0,71,0.00,,,0.00,0.00,pywws,2013-06-09 21:56:00,
2013-06-09 23:02:00,54.1,44.9,30.55,North,-999,0.0,0.0,71,0.00,,,0.00,0.00,pywws,2013-06-09 22:02:00,
2013-06-09 23:08:00,53.6,44.8,30.55,North,-999,0.0,0.7,72,0.00,,,0.00,0.00,pywws,2013-06-09 22:08:00,
2013-06-09 23:13:00,53.4,45.0,30.54,North,-999,0.0,0.0,73,0.00,,,0.00,0.00,pywws,2013-06-09 22:13:00,
2013-06-09 23:19:00,53.2,44.8,30.54,North,-999,0.0,0.0,73,0.00,,,0.00,0.00,pywws,2013-06-09 22:19:00,
2013-06-09 23:24:00,52.9,44.5,30.54,North,-999,0.0,0.0,73,0.00,,,0.00,0.00,pywws,2013-06-09 22:24:00,
2013-06-09 23:30:00,52.5,44.5,30.54,North,-999,0.0,0.7,74,0.00,,,0.00,0.00,pywws,2013-06-09 22:30:00,
2013-06-09 23:36:00,52.5,44.8,30.54,North,-999,0.0,0.0,75,0.00,,,0.00,0.00,pywws,2013-06-09 22:36:00,
2013-06-09 23:41:00,52.5,44.8,30.54,North,-999,0.0,0.7,75,0.00,,,0.00,0.00,pywws,2013-06-09 22:41:00,
2013-06-09 23:47:00,52.5,44.8,30.54,NW,315,0.7,1.6,75,0.00,,,0.00,0.00,pywws,2013-06-09 22:47:00,
2013-06-09 23:52:00,52.3,44.7,30.54,North,-999,0.0,0.7,75,0.00,,,0.00,0.00,pywws,2013-06-09 22:52:00,
2013-06-09 23:58:00,52.2,44.5,30.54,South,180,0.7,1.6,75,0.00,,,0.00,0.00,pywws,2013-06-09 22:58:00,